Retour au catalogue

BREEZE-M DEB

ActifMEO
NORAD 41548·DEBRIS·🇷🇺 Russia

Lancé Dec 13, 2015 depuis Baikonur Cosmodrome

Loading…

Prochains Passages (prochaines 24 heures)

TLE

FraisSource: Space-Track

Époque: Sep 13, 2026, 17:10 UTC

1 41548U 15075J   26256.71593624 -.00000004  00000-0  00000-0 0  9993
2 41548   8.8856  54.9023 0375869 138.9327 224.0947  1.02191171 40176

Suivez BREEZE-M DEB en temps réel avec AllMySat

Download on the App Store